START_TIME,STEP,MOV.,AL01,t_acc.,AL02,t_acc.,E37,t_acc.,H21,t_acc.
1981-08-28 15:00:35.000 ,3,0,0.,24.0,0.,24.0,0.,24.0,0.,24.0
1981-08-28 15:00:59.000 ,4,1,0.,24.0,0.,24.0,0.,24.0,0.,24.0
1981-08-28 15:01:23.000 ,4,0,0.,24.0,1.,24.0,0.,24.0,0.,24.0
1981-08-28 15:01:47.000 ,5,1,0.,24.0,0.,24.0,0.,24.0,0.,24.0
1981-08-28 15:02:11.000 ,5,0,0.,24.0,0.,24.0,2.,24.0,0.,24.0
1981-08-28 15:02:35.000 ,6,1,0.,24.0,0.,24.0,0.,24.0,0.,24.0
1981-08-28 15:02:59.000 ,6,0,0.,24.0,0.,24.0,0.,24.0,0.,24.0
1981-08-28 15:03:23.000 ,7,1,8.,24.0,0.,24.0,0.,24.0,0.,24.0
1981-08-28 15:03:47.000 ,7,0,31.,24.0,0.,24.0,0.,24.0,0.,24.0
1981-08-28 15:04:11.000 ,7,1,29.,24.0,0.,24.0,0.,24.0,0.,24.0
1981-08-28 15:04:35.000 ,6,1,31.,24.0,0.,24.0,0.,24.0,0.,24.0
1981-08-28 15:04:59.000 ,5,1,0.,24.0,0.,24.0,2.,24.0,0.,24.0
1981-08-28 15:05:23.000 ,4,1,0.,24.0,0.,24.0,1.,24.0,0.,24.0
1981-08-28 15:05:47.000 ,3,1,0.,24.0,0.,24.0,0.,24.0,0.,24.0
1981-08-28 15:06:11.000 ,2,1,0.,24.0,0.,24.0,1.,24.0,0.,24.0
1981-08-28 15:06:35.000 ,1,1,0.,24.0,0.,24.0,0.,24.0,0.,24.0
1981-08-28 15:06:59.000 ,0,1,0.,24.0,1.,24.0,0.,24.0,0.,24.0
1981-08-28 15:07:23.000 ,0,1,0.,24.0,0.,24.0,1.,24.0,0.,24.0
1981-08-28 15:07:47.000 ,1,1,0.,24.0,0.,24.0,0.,24.0,0.,24.0
1981-08-28 15:08:11.000 ,2,1,0.,24.0,0.,24.0,0.,24.0,0.,24.0
1981-08-28 15:08:35.000 ,3,1,0.,24.0,0.,24.0,0.,24.0,0.,24.0
1981-08-28 15:08:59.000 ,4,1,0.,24.0,1.,24.0,1.,24.0,0.,24.0
1981-08-28 15:09:23.000 ,5,1,0.,24.0,0.,24.0,0.,24.0,0.,24.0
1981-08-28 15:09:47.000 ,6,1,0.,24.0,0.,24.0,1.,24.0,0.,24.0
1981-08-28 15:10:11.000 ,7,1,7.,24.0,0.,24.0,0.,24.0,0.,24.0
1981-08-28 15:10:35.000 ,7,1,32.,24.0,0.,24.0,0.,24.0,0.,24.0
1981-08-28 15:10:59.000 ,7,0,30.,24.0,0.,24.0,0.,24.0,0.,24.0
1981-08-28 15:11:23.000 ,6,1,20.,24.0,0.,24.0,0.,24.0,0.,24.0
1981-08-28 15:11:47.000 ,6,0,0.,24.0,0.,24.0,0.,24.0,0.,24.0
1981-08-28 15:12:11.000 ,5,1,0.,24.0,0.,24.0,0.,24.0,0.,24.0
1981-08-28 15:12:35.000 ,5,0,0.,24.0,0.,24.0,1.,24.0,0.,24.0
1981-08-28 15:12:59.000 ,4,1,0.,24.0,0.,24.0,0.,24.0,0.,24.0
1981-08-28 15:13:23.000 ,4,0,0.,24.0,0.,24.0,0.,24.0,0.,24.0
1981-08-28 15:13:47.000 ,3,1,0.,24.0,0.,24.0,0.,24.0,0.,24.0
1981-08-28 15:14:11.000 ,3,0,0.,24.0,0.,24.0,1.,24.0,0.,24.0
1981-08-28 15:14:35.000 ,2,1,0.,24.0,0.,24.0,0.,24.0,0.,24.0
1981-08-28 15:14:59.000 ,2,0,0.,24.0,0.,24.0,0.,24.0,0.,24.0
1981-08-28 15:15:23.000 ,1,1,0.,24.0,0.,24.0,0.,24.0,0.,24.0
1981-08-28 15:15:47.000 ,1,0,0.,24.0,0.,24.0,0.,24.0,0.,24.0
1981-08-28 15:16:59.000 ,0,0,0.,24.0,0.,24.0,0.,24.0,0.,24.0
1981-08-28 15:17:23.000 ,0,0,0.,24.0,0.,24.0,1.,24.0,0.,24.0
1981-08-28 15:17:47.000 ,1,1,0.,24.0,0.,24.0,0.,24.0,0.,24.0
1981-08-28 15:18:11.000 ,1,0,0.,24.0,0.,24.0,0.,24.0,0.,24.0
1981-08-28 15:18:35.000 ,2,1,0.,24.0,0.,24.0,1.,24.0,0.,24.0
1981-08-28 15:18:59.000 ,2,0,0.,24.0,0.,24.0,1.,24.0,0.,24.0
1981-08-28 15:19:23.000 ,3,1,0.,24.0,0.,24.0,1.,24.0,0.,24.0
1981-08-28 15:19:47.000 ,3,0,0.,24.0,0.,24.0,0.,24.0,0.,24.0
1981-08-28 15:20:11.000 ,4,1,0.,24.0,0.,24.0,0.,24.0,0.,24.0
1981-08-28 15:20:35.000 ,4,0,0.,24.0,0.,24.0,0.,24.0,0.,24.0
1981-08-28 15:20:59.000 ,5,1,0.,24.0,0.,24.0,0.,24.0,0.,24.0
1981-08-28 15:21:23.000 ,5,0,0.,24.0,0.,24.0,0.,24.0,0.,24.0
1981-08-28 15:21:47.000 ,6,1,0.,24.0,0.,24.0,2.,24.0,0.,24.0
1981-08-28 15:22:11.000 ,6,0,0.,24.0,0.,24.0,0.,24.0,0.,24.0
1981-08-28 15:22:35.000 ,7,1,11.,24.0,0.,24.0,1.,24.0,0.,24.0
1981-08-28 15:22:59.000 ,7,0,30.,24.0,0.,24.0,1.,24.0,0.,24.0
1981-08-28 15:23:23.000 ,7,1,30.,24.0,0.,24.0,0.,24.0,0.,24.0
1981-08-28 15:23:47.000 ,6,1,22.,24.0,0.,24.0,0.,24.0,0.,24.0
1981-08-28 15:24:11.000 ,5,1,0.,24.0,0.,24.0,0.,24.0,0.,24.0
1981-08-28 15:24:35.000 ,4,1,0.,24.0,0.,24.0,1.,24.0,0.,24.0
1981-08-28 15:24:59.000 ,3,1,0.,24.0,0.,24.0,0.,24.0,0.,24.0
1981-08-28 15:25:23.000 ,2,1,0.,24.0,0.,24.0,1.,24.0,0.,24.0
1981-08-28 15:25:47.000 ,1,1,0.,24.0,0.,24.0,1.,24.0,0.,24.0
1981-08-28 15:26:11.000 ,0,1,0.,24.0,0.,24.0,1.,24.0,0.,24.0
1981-08-28 15:26:35.000 ,0,1,0.,24.0,1.,24.0,0.,24.0,0.,24.0
1981-08-28 15:26:59.000 ,1,1,0.,24.0,0.,24.0,0.,24.0,0.,24.0
1981-08-28 15:27:23.000 ,2,1,0.,24.0,0.,24.0,0.,24.0,0.,24.0
1981-08-28 15:27:47.000 ,3,1,0.,24.0,0.,24.0,1.,24.0,0.,24.0
1981-08-28 15:28:11.000 ,4,1,0.,24.0,0.,24.0,0.,24.0,0.,24.0
1981-08-28 15:28:35.000 ,5,1,0.,24.0,0.,24.0,0.,24.0,0.,24.0
1981-08-28 15:28:59.000 ,6,1,0.,24.0,0.,24.0,0.,24.0,0.,24.0
1981-08-28 15:29:23.000 ,7,1,11.,24.0,0.,24.0,0.,24.0,0.,24.0
1981-08-28 15:29:47.000 ,7,1,33.,24.0,0.,24.0,1.,24.0,0.,24.0
1981-08-28 15:30:11.000 ,7,0,30.,24.0,0.,24.0,0.,24.0,0.,24.0
1981-08-28 15:30:35.000 ,6,1,18.,24.0,0.,24.0,0.,24.0,0.,24.0
1981-08-28 15:30:59.000 ,6,0,0.,24.0,0.,24.0,2.,24.0,0.,24.0
1981-08-28 15:31:23.000 ,5,1,0.,24.0,0.,24.0,0.,24.0,0.,24.0
1981-08-28 15:31:47.000 ,5,0,0.,24.0,0.,24.0,1.,24.0,0.,24.0
1981-08-28 15:32:11.000 ,4,1,0.,24.0,0.,24.0,0.,24.0,0.,24.0
1981-08-28 15:32:35.000 ,4,0,0.,24.0,0.,24.0,0.,24.0,0.,24.0
1981-08-28 15:32:59.000 ,3,1,0.,24.0,0.,24.0,1.,24.0,0.,24.0
1981-08-28 15:33:23.000 ,3,0,0.,24.0,0.,24.0,0.,24.0,0.,24.0
1981-08-28 15:33:47.000 ,2,1,0.,24.0,0.,24.0,0.,24.0,0.,24.0
1981-08-28 15:34:11.000 ,2,0,0.,24.0,0.,24.0,0.,24.0,0.,24.0
1981-08-28 15:34:35.000 ,1,1,0.,24.0,0.,24.0,0.,24.0,0.,24.0
1981-08-28 15:34:59.000 ,1,0,0.,24.0,0.,24.0,0.,24.0,0.,24.0
1981-08-28 15:35:23.000 ,0,1,0.,24.0,0.,24.0,0.,24.0,0.,24.0
1981-08-28 15:35:47.000 ,0,0,0.,24.0,0.,24.0,0.,24.0,0.,24.0
1981-08-28 15:36:11.000 ,0,1,0.,24.0,0.,24.0,1.,24.0,0.,24.0
1981-08-28 15:36:35.000 ,0,0,1.,24.0,0.,24.0,0.,24.0,0.,24.0
1981-08-28 15:36:59.000 ,1,1,0.,24.0,1.,24.0,0.,24.0,0.,24.0
1981-08-28 15:37:23.000 ,1,0,0.,24.0,0.,24.0,1.,24.0,0.,24.0
1981-08-28 15:37:47.000 ,2,1,0.,24.0,0.,24.0,0.,24.0,0.,24.0
1981-08-28 15:38:11.000 ,2,0,0.,24.0,0.,24.0,0.,24.0,0.,24.0
1981-08-28 15:38:35.000 ,3,1,0.,24.0,0.,24.0,1.,24.0,0.,24.0
1981-08-28 15:38:59.000 ,3,0,0.,24.0,0.,24.0,0.,24.0,0.,24.0
1981-08-28 15:39:23.000 ,4,1,0.,24.0,0.,24.0,0.,24.0,0.,24.0
1981-08-28 15:39:47.000 ,4,0,0.,24.0,1.,24.0,0.,24.0,0.,24.0
1981-08-28 15:40:11.000 ,5,1,0.,24.0,0.,24.0,0.,24.0,0.,24.0
1981-08-28 15:40:35.000 ,5,0,0.,24.0,0.,24.0,1.,24.0,0.,24.0
1981-08-28 15:40:59.000 ,6,1,0.,24.0,0.,24.0,0.,24.0,0.,24.0
1981-08-28 15:41:23.000 ,6,0,0.,24.0,0.,24.0,2.,24.0,0.,24.0
1981-08-28 15:41:47.000 ,7,1,13.,24.0,0.,24.0,0.,24.0,0.,24.0
1981-08-28 15:42:11.000 ,7,0,35.,24.0,0.,24.0,0.,24.0,0.,24.0
1981-08-28 15:42:35.000 ,7,1,30.,24.0,0.,24.0,0.,24.0,0.,24.0
1981-08-28 15:42:59.000 ,6,1,24.,24.0,0.,24.0,1.,24.0,0.,24.0
1981-08-28 15:43:23.000 ,5,1,0.,24.0,0.,24.0,0.,24.0,0.,24.0
1981-08-28 15:43:47.000 ,4,1,0.,24.0,0.,24.0,1.,24.0,0.,24.0
1981-08-28 15:44:11.000 ,3,1,0.,24.0,0.,24.0,1.,24.0,0.,24.0
1981-08-28 15:44:35.000 ,2,1,0.,24.0,0.,24.0,0.,24.0,0.,24.0
1981-08-28 15:44:59.000 ,1,1,1.,24.0,0.,24.0,0.,24.0,0.,24.0
1981-08-28 15:45:23.000 ,0,1,0.,24.0,0.,24.0,0.,24.0,0.,24.0
1981-08-28 15:45:47.000 ,0,1,0.,24.0,1.,24.0,0.,24.0,0.,24.0
1981-08-28 15:46:11.000 ,1,1,0.,24.0,0.,24.0,0.,24.0,0.,24.0
1981-08-28 15:46:35.000 ,2,1,0.,24.0,0.,24.0,0.,24.0,0.,24.0
1981-08-28 15:46:59.000 ,3,1,0.,24.0,0.,24.0,1.,24.0,0.,24.0
1981-08-28 15:47:23.000 ,4,1,0.,24.0,0.,24.0,0.,24.0,0.,24.0
1981-08-28 15:47:47.000 ,5,1,0.,24.0,0.,24.0,1.,24.0,0.,24.0
1981-08-28 15:48:11.000 ,6,1,0.,24.0,0.,24.0,1.,24.0,0.,24.0
1981-08-28 15:48:35.000 ,7,1,10.,24.0,0.,24.0,1.,24.0,0.,24.0
1981-08-28 15:48:59.000 ,7,1,40.,24.0,0.,24.0,0.,24.0,0.,24.0
1981-08-28 15:49:23.000 ,7,0,27.,24.0,0.,24.0,0.,24.0,0.,24.0
1981-08-28 15:49:47.000 ,6,1,30.,24.0,0.,24.0,0.,24.0,0.,24.0
1981-08-28 15:50:11.000 ,6,0,0.,24.0,0.,24.0,0.,24.0,0.,24.0
1981-08-28 15:50:35.000 ,5,1,0.,24.0,0.,24.0,2.,24.0,0.,24.0
1981-08-28 15:50:59.000 ,5,0,0.,24.0,0.,24.0,1.,24.0,0.,24.0
1981-08-28 15:51:23.000 ,4,1,0.,24.0,0.,24.0,1.,24.0,0.,24.0
1981-08-28 15:51:47.000 ,4,0,0.,24.0,0.,24.0,0.,24.0,0.,24.0
1981-08-28 15:52:11.000 ,3,1,0.,24.0,0.,24.0,0.,24.0,0.,24.0
1981-08-28 15:52:35.000 ,3,0,0.,24.0,0.,24.0,0.,24.0,0.,24.0
1981-08-28 15:52:59.000 ,2,1,1.,24.0,1.,24.0,0.,24.0,0.,24.0
1981-08-28 15:53:23.000 ,2,0,0.,24.0,0.,24.0,1.,24.0,0.,24.0
1981-08-28 15:53:46.990 ,1,1,0.,24.0,0.,24.0,0.,24.0,0.,24.0
1981-08-28 15:54:10.990 ,1,0,0.,24.0,0.,24.0,0.,24.0,0.,24.0
1981-08-28 15:54:34.990 ,0,1,0.,24.0,0.,24.0,0.,24.0,0.,24.0
1981-08-28 15:54:58.990 ,0,0,0.,24.0,0.,24.0,0.,24.0,0.,24.0
1981-08-28 15:55:22.990 ,0,1,0.,24.0,0.,24.0,0.,24.0,0.,24.0
1981-08-28 15:55:46.990 ,0,0,0.,24.0,0.,24.0,0.,24.0,0.,24.0
1981-08-28 15:56:10.990 ,1,1,0.,24.0,0.,24.0,0.,24.0,0.,24.0
1981-08-28 15:56:34.990 ,1,0,0.,24.0,0.,24.0,1.,24.0,0.,24.0
1981-08-28 15:56:58.990 ,0,0,0.,24.0,0.,24.0,0.,24.0,0.,24.0
1981-08-28 15:57:22.990 ,0,0,0.,24.0,0.,24.0,0.,24.0,0.,24.0
1981-08-28 15:57:46.990 ,3,1,0.,24.0,0.,24.0,1.,24.0,0.,24.0
1981-08-28 15:58:10.990 ,3,0,0.,24.0,0.,24.0,0.,24.0,0.,24.0
1981-08-28 15:58:34.990 ,4,1,0.,24.0,0.,24.0,0.,24.0,0.,24.0
1981-08-28 15:58:58.990 ,4,0,0.,24.0,0.,24.0,2.,24.0,0.,24.0
1981-08-28 15:59:22.990 ,5,1,0.,24.0,0.,24.0,0.,24.0,0.,24.0
1981-08-28 15:59:46.990 ,0,0,,0,,0,,0,,0
1981-08-28 16:04:27.190 ,0,0,,0,,0,,0,,0
1981-08-28 16:04:34.990 ,0,1,0.,24.0,0.,24.0,2.,24.0,0.,24.0
1981-08-28 16:04:58.990 ,0,1,0.,24.0,0.,24.0,0.,24.0,0.,24.0
1981-08-28 16:05:22.990 ,1,1,0.,24.0,0.,24.0,0.,24.0,0.,24.0
1981-08-28 16:05:46.990 ,2,1,0.,24.0,0.,24.0,0.,24.0,0.,24.0
1981-08-28 16:06:10.990 ,0,0,,0,,0,,0,,0
1981-08-28 16:06:24.190 ,3,0,,0,,0,,0,,0
1981-08-28 16:06:34.990 ,4,1,0.,24.0,0.,24.0,0.,24.0,0.,24.0
1981-08-28 16:06:58.990 ,5,1,0.,24.0,0.,24.0,0.,24.0,0.,24.0
1981-08-28 16:07:22.990 ,6,1,0.,24.0,0.,24.0,0.,24.0,0.,24.0
1981-08-28 16:07:46.990 ,7,1,7.,24.0,0.,24.0,0.,24.0,0.,24.0
1981-08-28 16:08:10.990 ,7,1,33.,24.0,0.,24.0,0.,24.0,0.,24.0
1981-08-28 16:08:34.990 ,7,0,30.,24.0,0.,24.0,0.,24.0,0.,24.0
1981-08-28 16:08:58.990 ,6,1,21.,24.0,0.,24.0,0.,24.0,0.,24.0
1981-08-28 16:09:22.990 ,6,0,0.,24.0,0.,24.0,0.,24.0,0.,24.0
1981-08-28 16:09:46.990 ,5,1,0.,24.0,0.,24.0,0.,24.0,0.,24.0
1981-08-28 16:10:10.990 ,5,0,0.,24.0,0.,24.0,0.,24.0,0.,24.0
1981-08-28 16:10:34.990 ,4,1,0.,24.0,0.,24.0,1.,24.0,0.,24.0
1981-08-28 16:10:58.990 ,4,0,0.,24.0,0.,24.0,1.,24.0,0.,24.0
1981-08-28 16:11:22.990 ,3,1,0.,24.0,0.,24.0,1.,24.0,0.,24.0
1981-08-28 16:11:46.990 ,3,0,0.,24.0,0.,24.0,1.,24.0,0.,24.0
1981-08-28 16:12:10.990 ,2,1,0.,24.0,0.,24.0,0.,24.0,0.,24.0
1981-08-28 16:12:34.990 ,2,0,0.,24.0,0.,24.0,0.,24.0,0.,24.0
1981-08-28 16:12:58.990 ,1,1,0.,24.0,0.,24.0,1.,24.0,0.,24.0
1981-08-28 16:13:22.990 ,1,0,0.,24.0,0.,24.0,0.,24.0,0.,24.0
1981-08-28 16:13:46.990 ,0,1,1.,24.0,0.,24.0,0.,24.0,0.,24.0
1981-08-28 16:14:10.990 ,0,0,0.,24.0,0.,24.0,0.,24.0,0.,24.0
1981-08-28 16:14:34.990 ,0,1,0.,24.0,0.,24.0,0.,24.0,0.,24.0
1981-08-28 16:14:58.990 ,0,0,0.,24.0,0.,24.0,0.,24.0,0.,24.0
1981-08-28 16:15:22.990 ,1,1,0.,24.0,0.,24.0,0.,24.0,0.,24.0
1981-08-28 16:15:46.990 ,1,0,0.,24.0,0.,24.0,0.,24.0,0.,24.0
1981-08-28 16:16:10.990 ,2,1,0.,24.0,0.,24.0,0.,24.0,0.,24.0
1981-08-28 16:16:34.990 ,2,0,0.,24.0,0.,24.0,0.,24.0,0.,24.0
1981-08-28 16:16:58.990 ,3,1,0.,24.0,0.,24.0,0.,24.0,0.,24.0
1981-08-28 16:17:22.990 ,3,0,0.,24.0,0.,24.0,0.,24.0,0.,24.0
1981-08-28 16:17:46.990 ,4,1,0.,24.0,0.,24.0,0.,24.0,0.,24.0
1981-08-28 16:18:10.990 ,4,0,0.,24.0,0.,24.0,0.,24.0,0.,24.0
1981-08-28 16:18:34.990 ,5,1,0.,24.0,0.,24.0,0.,24.0,0.,24.0
1981-08-28 16:18:58.990 ,5,0,0.,24.0,0.,24.0,0.,24.0,0.,24.0
1981-08-28 16:19:22.990 ,6,1,0.,24.0,0.,24.0,2.,24.0,0.,24.0
1981-08-28 16:19:46.990 ,6,0,0.,24.0,0.,24.0,0.,24.0,0.,24.0
1981-08-28 16:20:10.990 ,7,1,10.,24.0,0.,24.0,1.,24.0,0.,24.0
1981-08-28 16:20:34.990 ,7,0,34.,24.0,0.,24.0,1.,24.0,0.,24.0
1981-08-28 16:20:58.990 ,7,1,29.,24.0,0.,24.0,1.,24.0,0.,24.0
1981-08-28 16:21:22.990 ,6,1,20.,24.0,0.,24.0,0.,24.0,0.,24.0
1981-08-28 16:21:46.990 ,5,1,0.,24.0,0.,24.0,0.,24.0,0.,24.0
1981-08-28 16:22:10.990 ,4,1,0.,24.0,0.,24.0,1.,24.0,0.,24.0
1981-08-28 16:22:34.990 ,0,0,0.,24.0,0.,24.0,0.,24.0,0.,24.0
1981-08-28 16:22:58.990 ,2,1,0.,24.0,0.,24.0,0.,24.0,0.,24.0
1981-08-28 16:23:22.990 ,1,1,0.,24.0,0.,24.0,0.,24.0,0.,24.0
1981-08-28 16:23:46.990 ,0,1,0.,24.0,0.,24.0,1.,24.0,0.,24.0
1981-08-28 16:24:10.990 ,0,1,0.,24.0,0.,24.0,0.,24.0,0.,24.0
1981-08-28 16:24:34.990 ,1,1,0.,24.0,0.,24.0,0.,24.0,0.,24.0
1981-08-28 16:24:58.990 ,2,1,0.,24.0,0.,24.0,0.,24.0,0.,24.0
1981-08-28 16:25:22.990 ,3,1,0.,24.0,0.,24.0,0.,24.0,0.,24.0
1981-08-28 16:25:46.990 ,4,1,0.,24.0,0.,24.0,1.,24.0,0.,24.0
1981-08-28 16:26:10.990 ,5,1,0.,24.0,0.,24.0,0.,24.0,0.,24.0
1981-08-28 16:26:34.990 ,6,1,0.,24.0,0.,24.0,0.,24.0,0.,24.0
1981-08-28 16:26:58.990 ,7,1,6.,24.0,0.,24.0,0.,24.0,0.,24.0
1981-08-28 16:27:22.990 ,7,1,32.,24.0,0.,24.0,1.,24.0,0.,24.0
1981-08-28 16:27:46.990 ,7,0,25.,24.0,0.,24.0,0.,24.0,0.,24.0
1981-08-28 16:28:10.990 ,6,1,16.,24.0,0.,24.0,0.,24.0,0.,24.0
1981-08-28 16:28:34.990 ,6,0,0.,24.0,0.,24.0,0.,24.0,0.,24.0
1981-08-28 16:28:58.990 ,5,1,0.,24.0,0.,24.0,0.,24.0,0.,24.0
1981-08-28 16:29:22.990 ,5,0,0.,24.0,0.,24.0,0.,24.0,0.,24.0
1981-08-28 16:29:46.990 ,4,1,0.,24.0,0.,24.0,1.,24.0,0.,24.0
1981-08-28 16:30:10.990 ,4,0,0.,24.0,0.,24.0,0.,24.0,0.,24.0
1981-08-28 16:30:34.990 ,3,1,0.,24.0,0.,24.0,1.,24.0,0.,24.0
1981-08-28 16:30:58.990 ,3,0,0.,24.0,0.,24.0,1.,24.0,0.,24.0
1981-08-28 16:31:22.990 ,2,1,0.,24.0,0.,24.0,0.,24.0,0.,24.0
1981-08-28 16:31:46.990 ,2,0,0.,24.0,0.,24.0,0.,24.0,0.,24.0
1981-08-28 16:32:10.990 ,1,1,0.,24.0,0.,24.0,0.,24.0,0.,24.0
1981-08-28 16:32:34.990 ,1,0,0.,24.0,0.,24.0,0.,24.0,0.,24.0
1981-08-28 16:32:58.990 ,0,1,0.,24.0,0.,24.0,0.,24.0,0.,24.0
1981-08-28 16:33:22.990 ,0,0,0.,24.0,0.,24.0,1.,24.0,0.,24.0
1981-08-28 16:33:46.990 ,0,1,0.,24.0,0.,24.0,0.,24.0,0.,24.0
1981-08-28 16:34:10.990 ,0,0,0.,24.0,0.,24.0,0.,24.0,0.,24.0
1981-08-28 16:34:34.990 ,1,1,0.,24.0,0.,24.0,1.,24.0,0.,24.0
1981-08-28 16:34:58.990 ,1,0,0.,24.0,0.,24.0,1.,24.0,0.,24.0
1981-08-28 16:35:22.990 ,2,1,0.,24.0,0.,24.0,0.,24.0,0.,24.0
1981-08-28 16:35:46.990 ,2,0,0.,24.0,0.,24.0,0.,24.0,0.,24.0
1981-08-28 16:36:10.990 ,3,1,0.,24.0,0.,24.0,0.,24.0,0.,24.0
1981-08-28 16:36:34.990 ,3,0,0.,24.0,0.,24.0,0.,24.0,0.,24.0
1981-08-28 16:36:58.990 ,4,1,0.,24.0,0.,24.0,0.,24.0,0.,24.0
1981-08-28 16:37:22.990 ,4,0,0.,24.0,0.,24.0,0.,24.0,0.,24.0
1981-08-28 16:37:46.990 ,5,1,0.,24.0,0.,24.0,0.,24.0,0.,24.0
1981-08-28 16:38:10.990 ,5,0,0.,24.0,0.,24.0,1.,24.0,0.,24.0
1981-08-28 16:38:34.990 ,6,1,0.,24.0,0.,24.0,0.,24.0,0.,24.0
1981-08-28 16:38:58.990 ,6,0,0.,24.0,0.,24.0,0.,24.0,0.,24.0
1981-08-28 16:39:22.990 ,7,1,9.,24.0,0.,24.0,1.,24.0,0.,24.0
1981-08-28 16:39:46.990 ,7,0,35.,24.0,0.,24.0,0.,24.0,0.,24.0
1981-08-28 16:40:10.990 ,7,1,17.,24.0,0.,24.0,1.,24.0,0.,24.0
1981-08-28 16:40:34.990 ,6,1,16.,24.0,0.,24.0,0.,24.0,0.,24.0
1981-08-28 16:40:58.990 ,5,1,0.,24.0,0.,24.0,0.,24.0,0.,24.0
1981-08-28 16:41:22.990 ,4,1,0.,24.0,0.,24.0,1.,24.0,0.,24.0
1981-08-28 16:41:46.990 ,3,1,0.,24.0,0.,24.0,0.,24.0,0.,24.0
1981-08-28 16:42:10.990 ,2,1,0.,24.0,0.,24.0,0.,24.0,0.,24.0
1981-08-28 16:42:34.990 ,1,1,0.,24.0,0.,24.0,1.,24.0,0.,24.0
1981-08-28 16:42:58.990 ,0,1,0.,24.0,0.,24.0,0.,24.0,0.,24.0
1981-08-28 16:43:22.990 ,0,1,2.,24.0,0.,24.0,0.,24.0,0.,24.0
1981-08-28 16:43:46.990 ,1,1,1.,24.0,0.,24.0,1.,24.0,0.,24.0
1981-08-28 16:44:10.990 ,2,1,0.,24.0,0.,24.0,0.,24.0,0.,24.0
1981-08-28 16:44:34.990 ,3,1,0.,24.0,0.,24.0,0.,24.0,0.,24.0
1981-08-28 16:44:58.990 ,4,1,0.,24.0,0.,24.0,0.,24.0,0.,24.0
1981-08-28 16:45:22.990 ,5,1,0.,24.0,0.,24.0,0.,24.0,0.,24.0
1981-08-28 16:45:46.990 ,6,1,0.,24.0,0.,24.0,0.,24.0,0.,24.0
1981-08-28 16:46:10.990 ,7,1,5.,24.0,0.,24.0,0.,24.0,0.,24.0
1981-08-28 16:46:34.990 ,7,1,32.,24.0,0.,24.0,0.,24.0,0.,24.0
1981-08-28 16:46:58.990 ,7,0,42.,24.0,0.,24.0,0.,24.0,0.,24.0
1981-08-28 16:47:22.990 ,6,1,27.,24.0,0.,24.0,0.,24.0,0.,24.0
1981-08-28 16:47:46.990 ,6,0,0.,24.0,0.,24.0,0.,24.0,0.,24.0
1981-08-28 16:48:10.990 ,5,1,0.,24.0,0.,24.0,0.,24.0,0.,24.0
1981-08-28 16:48:34.990 ,5,0,0.,24.0,0.,24.0,0.,24.0,0.,24.0
1981-08-28 16:48:58.990 ,4,1,0.,24.0,0.,24.0,0.,24.0,0.,24.0
1981-08-28 16:49:22.990 ,4,0,0.,24.0,0.,24.0,0.,24.0,0.,24.0
1981-08-28 16:49:46.990 ,3,1,0.,24.0,0.,24.0,0.,24.0,0.,24.0
1981-08-28 16:50:10.990 ,3,0,0.,24.0,0.,24.0,1.,24.0,0.,24.0
1981-08-28 16:50:34.990 ,2,1,0.,24.0,0.,24.0,0.,24.0,0.,24.0
1981-08-28 16:50:58.990 ,2,0,0.,24.0,0.,24.0,0.,24.0,0.,24.0
1981-08-28 16:51:22.990 ,1,1,0.,24.0,0.,24.0,1.,24.0,0.,24.0
1981-08-28 16:51:46.990 ,1,0,0.,24.0,0.,24.0,0.,24.0,0.,24.0
1981-08-28 16:52:10.990 ,0,1,0.,24.0,0.,24.0,1.,24.0,0.,24.0
1981-08-28 16:52:34.990 ,0,0,0.,24.0,0.,24.0,0.,24.0,0.,24.0
1981-08-28 16:52:58.990 ,0,1,0.,24.0,0.,24.0,0.,24.0,0.,24.0
1981-08-28 16:53:22.990 ,0,0,0.,24.0,0.,24.0,0.,24.0,0.,24.0
1981-08-28 16:53:46.990 ,1,1,0.,24.0,0.,24.0,0.,24.0,0.,24.0
1981-08-28 16:54:10.990 ,1,0,0.,24.0,0.,24.0,0.,24.0,0.,24.0
1981-08-28 16:54:34.990 ,2,1,0.,24.0,0.,24.0,0.,24.0,0.,24.0
1981-08-28 16:54:58.990 ,2,0,0.,24.0,0.,24.0,0.,24.0,0.,24.0
1981-08-28 16:55:22.990 ,3,1,0.,24.0,0.,24.0,1.,24.0,0.,24.0
1981-08-28 16:55:46.990 ,3,0,0.,24.0,0.,24.0,0.,24.0,0.,24.0
1981-08-28 16:56:10.990 ,4,1,0.,24.0,0.,24.0,0.,24.0,0.,24.0
1981-08-28 16:56:34.990 ,4,0,0.,24.0,0.,24.0,0.,24.0,0.,24.0
1981-08-28 16:56:58.990 ,5,1,0.,24.0,0.,24.0,0.,24.0,0.,24.0
1981-08-28 16:57:22.990 ,5,0,0.,24.0,0.,24.0,0.,24.0,0.,24.0
1981-08-28 16:57:46.990 ,6,1,0.,24.0,0.,24.0,0.,24.0,0.,24.0
1981-08-28 16:58:10.990 ,6,0,1.,24.0,0.,24.0,1.,24.0,0.,24.0
1981-08-28 16:58:34.990 ,7,1,8.,24.0,0.,24.0,1.,24.0,0.,24.0
1981-08-28 16:58:58.990 ,7,0,28.,24.0,0.,24.0,0.,24.0,0.,24.0
1981-08-28 16:59:22.990 ,7,1,34.,24.0,0.,24.0,0.,24.0,0.,24.0
1981-08-28 16:59:46.990 ,6,1,19.,24.0,0.,24.0,0.,24.0,0.,24.0
1981-08-28 17:00:10.990 ,5,1,0.,24.0,0.,24.0,1.,24.0,0.,24.0
1981-08-28 17:00:34.990 ,4,1,0.,24.0,0.,24.0,0.,24.0,0.,24.0
1981-08-28 17:00:58.990 ,3,1,0.,24.0,0.,24.0,1.,24.0,0.,24.0
1981-08-28 17:01:22.990 ,2,1,0.,24.0,0.,24.0,0.,24.0,0.,24.0
1981-08-28 17:01:46.990 ,1,1,0.,24.0,0.,24.0,0.,24.0,0.,24.0
1981-08-28 17:02:10.990 ,0,1,0.,24.0,0.,24.0,0.,24.0,0.,24.0
1981-08-28 17:02:34.990 ,0,1,0.,24.0,0.,24.0,1.,24.0,0.,24.0
1981-08-28 17:02:58.990 ,1,1,0.,24.0,0.,24.0,0.,24.0,0.,24.0
1981-08-28 17:03:22.990 ,2,1,1.,24.0,0.,24.0,0.,24.0,0.,24.0
1981-08-28 17:03:46.990 ,3,1,0.,24.0,0.,24.0,0.,24.0,0.,24.0
1981-08-28 17:04:10.990 ,4,1,0.,24.0,0.,24.0,0.,24.0,0.,24.0
1981-08-28 17:04:34.990 ,5,1,0.,24.0,0.,24.0,0.,24.0,0.,24.0
1981-08-28 17:04:58.990 ,6,1,0.,24.0,0.,24.0,0.,24.0,0.,24.0
1981-08-28 17:05:22.990 ,7,1,10.,24.0,0.,24.0,0.,24.0,0.,24.0
1981-08-28 17:05:46.990 ,7,1,21.,24.0,0.,24.0,1.,24.0,0.,24.0
1981-08-28 17:06:10.990 ,7,0,19.,24.0,0.,24.0,0.,24.0,0.,24.0
1981-08-28 17:06:34.990 ,6,1,28.,24.0,0.,24.0,1.,24.0,0.,24.0
1981-08-28 17:06:58.990 ,6,0,0.,24.0,0.,24.0,1.,24.0,0.,24.0
1981-08-28 17:07:22.990 ,5,1,0.,24.0,0.,24.0,0.,24.0,0.,24.0
1981-08-28 17:07:46.990 ,5,0,0.,24.0,0.,24.0,0.,24.0,0.,24.0
1981-08-28 17:08:10.990 ,4,1,0.,24.0,0.,24.0,0.,24.0,0.,24.0
1981-08-28 17:08:34.990 ,4,0,0.,24.0,0.,24.0,0.,24.0,0.,24.0
1981-08-28 17:08:58.990 ,3,1,1.,24.0,0.,24.0,1.,24.0,0.,24.0
1981-08-28 17:09:22.990 ,3,0,0.,24.0,0.,24.0,0.,24.0,0.,24.0
1981-08-28 17:09:46.990 ,2,1,0.,24.0,0.,24.0,0.,24.0,0.,24.0
1981-08-28 17:10:10.990 ,2,0,0.,24.0,0.,24.0,0.,24.0,0.,24.0
1981-08-28 17:10:34.990 ,1,1,0.,24.0,0.,24.0,1.,24.0,0.,24.0
1981-08-28 17:10:58.990 ,1,0,0.,24.0,0.,24.0,0.,24.0,0.,24.0
1981-08-28 17:11:22.990 ,0,1,0.,24.0,0.,24.0,1.,24.0,0.,24.0
1981-08-28 17:11:46.990 ,0,0,0.,24.0,0.,24.0,1.,24.0,0.,24.0
1981-08-28 17:12:10.990 ,0,1,0.,24.0,0.,24.0,0.,24.0,0.,24.0
1981-08-28 17:12:34.990 ,0,0,0.,24.0,0.,24.0,1.,24.0,0.,24.0
1981-08-28 17:12:58.990 ,1,1,0.,24.0,0.,24.0,0.,24.0,0.,24.0
1981-08-28 17:13:22.990 ,1,0,0.,24.0,0.,24.0,0.,24.0,0.,24.0
1981-08-28 17:13:46.990 ,2,1,0.,24.0,0.,24.0,0.,24.0,0.,24.0
1981-08-28 17:14:10.990 ,2,0,0.,24.0,0.,24.0,0.,24.0,0.,24.0
1981-08-28 17:14:34.990 ,3,1,0.,24.0,0.,24.0,0.,24.0,0.,24.0
1981-08-28 17:14:58.990 ,3,0,0.,24.0,0.,24.0,0.,24.0,0.,24.0
1981-08-28 17:15:22.990 ,4,1,0.,24.0,0.,24.0,0.,24.0,0.,24.0
1981-08-28 17:15:46.990 ,4,0,0.,24.0,0.,24.0,1.,24.0,0.,24.0
1981-08-28 17:16:10.990 ,5,1,0.,24.0,0.,24.0,1.,24.0,0.,24.0
1981-08-28 17:16:34.990 ,5,0,0.,24.0,0.,24.0,1.,24.0,0.,24.0
1981-08-28 17:16:58.990 ,6,1,0.,24.0,0.,24.0,0.,24.0,0.,24.0
1981-08-28 17:17:22.990 ,6,0,0.,24.0,0.,24.0,0.,24.0,0.,24.0
1981-08-28 17:17:46.990 ,7,1,9.,24.0,0.,24.0,1.,24.0,0.,24.0
1981-08-28 17:18:10.990 ,7,0,33.,24.0,0.,24.0,0.,24.0,0.,24.0
1981-08-28 17:18:34.990 ,7,1,40.,24.0,0.,24.0,1.,24.0,0.,24.0
1981-08-28 17:18:58.990 ,6,1,28.,24.0,0.,24.0,0.,24.0,0.,24.0
1981-08-28 17:19:22.990 ,5,1,0.,24.0,0.,24.0,0.,24.0,0.,24.0
1981-08-28 17:19:46.990 ,4,1,0.,24.0,0.,24.0,0.,24.0,0.,24.0
1981-08-28 17:20:10.990 ,3,1,0.,24.0,0.,24.0,0.,24.0,0.,24.0
1981-08-28 17:20:34.990 ,2,1,0.,24.0,0.,24.0,0.,24.0,0.,24.0
1981-08-28 17:20:58.990 ,1,1,0.,24.0,0.,24.0,0.,24.0,0.,24.0
1981-08-28 17:21:22.990 ,0,1,0.,24.0,0.,24.0,0.,24.0,0.,24.0
1981-08-28 17:21:46.990 ,0,1,0.,24.0,0.,24.0,0.,24.0,0.,24.0
1981-08-28 17:22:10.990 ,1,1,0.,24.0,0.,24.0,0.,24.0,0.,24.0
1981-08-28 17:22:34.990 ,2,1,0.,24.0,0.,24.0,1.,24.0,0.,24.0
1981-08-28 17:22:58.990 ,3,1,0.,24.0,0.,24.0,1.,24.0,0.,24.0
1981-08-28 17:23:22.990 ,4,1,0.,24.0,1.,24.0,0.,24.0,0.,24.0
1981-08-28 17:23:46.990 ,5,1,0.,24.0,0.,24.0,0.,24.0,0.,24.0
1981-08-28 17:24:10.990 ,6,1,0.,24.0,0.,24.0,0.,24.0,0.,24.0
1981-08-28 17:24:34.990 ,7,1,10.,24.0,0.,24.0,0.,24.0,0.,24.0
1981-08-28 17:24:58.990 ,7,1,31.,24.0,0.,24.0,0.,24.0,0.,24.0
1981-08-28 17:25:22.990 ,7,0,25.,24.0,0.,24.0,0.,24.0,0.,24.0
1981-08-28 17:25:46.990 ,6,1,16.,24.0,0.,24.0,0.,24.0,0.,24.0
1981-08-28 17:26:10.990 ,6,0,0.,24.0,0.,24.0,0.,24.0,0.,24.0
1981-08-28 17:26:34.990 ,5,1,0.,24.0,0.,24.0,0.,24.0,0.,24.0
1981-08-28 17:26:58.990 ,5,0,0.,24.0,0.,24.0,0.,24.0,0.,24.0
1981-08-28 17:27:22.990 ,4,1,0.,24.0,0.,24.0,0.,24.0,0.,24.0
1981-08-28 17:27:46.990 ,4,0,0.,24.0,0.,24.0,0.,24.0,0.,24.0
1981-08-28 17:28:10.990 ,3,1,0.,24.0,0.,24.0,0.,24.0,0.,24.0
1981-08-28 17:28:34.990 ,3,0,0.,24.0,0.,24.0,2.,24.0,0.,24.0
1981-08-28 17:28:58.990 ,2,1,0.,24.0,0.,24.0,0.,24.0,0.,24.0
1981-08-28 17:29:22.990 ,2,0,0.,24.0,0.,24.0,0.,24.0,0.,24.0
1981-08-28 17:29:46.990 ,1,1,0.,24.0,0.,24.0,1.,24.0,0.,24.0
1981-08-28 17:30:10.990 ,1,0,0.,24.0,0.,24.0,0.,24.0,0.,24.0
1981-08-28 17:30:34.990 ,0,1,0.,24.0,0.,24.0,0.,24.0,0.,24.0
1981-08-28 17:30:58.990 ,0,0,0.,24.0,0.,24.0,1.,24.0,0.,24.0
1981-08-28 17:31:22.990 ,0,1,0.,24.0,0.,24.0,0.,24.0,0.,24.0
1981-08-28 17:31:46.990 ,0,0,0.,24.0,0.,24.0,1.,24.0,0.,24.0
1981-08-28 17:32:10.990 ,1,1,0.,24.0,0.,24.0,0.,24.0,0.,24.0
1981-08-28 17:32:34.990 ,1,0,0.,24.0,0.,24.0,1.,24.0,0.,24.0
1981-08-28 17:32:58.990 ,2,1,0.,24.0,0.,24.0,0.,24.0,0.,24.0
1981-08-28 17:33:22.990 ,2,0,0.,24.0,0.,24.0,0.,24.0,0.,24.0
1981-08-28 17:33:46.990 ,3,1,0.,24.0,0.,24.0,1.,24.0,0.,24.0
1981-08-28 17:34:10.990 ,3,0,0.,24.0,0.,24.0,1.,24.0,0.,24.0
1981-08-28 17:34:34.990 ,4,1,0.,24.0,0.,24.0,1.,24.0,0.,24.0
1981-08-28 17:34:58.990 ,0,0,0.,24.0,0.,24.0,0.,24.0,0.,24.0
1981-08-28 17:35:27.190 ,0,0,0.,24.0,1.,24.0,1.,24.0,0.,24.0
1981-08-28 17:35:46.990 ,0,0,0.,24.0,0.,24.0,1.,24.0,0.,24.0
1981-08-28 17:36:10.990 ,6,1,0.,24.0,0.,24.0,0.,24.0,0.,24.0
1981-08-28 17:36:34.990 ,6,0,1.,24.0,0.,24.0,0.,24.0,0.,24.0
1981-08-28 17:36:58.990 ,7,1,4.,24.0,0.,24.0,1.,24.0,0.,24.0
1981-08-28 17:37:22.990 ,7,0,40.,24.0,0.,24.0,0.,24.0,0.,24.0
1981-08-28 17:37:46.990 ,7,1,27.,24.0,0.,24.0,0.,24.0,0.,24.0
1981-08-28 17:38:10.990 ,6,1,22.,24.0,0.,24.0,0.,24.0,0.,24.0
1981-08-28 17:38:34.990 ,5,1,0.,24.0,0.,24.0,1.,24.0,0.,24.0
1981-08-28 17:38:58.990 ,4,1,0.,24.0,0.,24.0,0.,24.0,0.,24.0